sat.trackr.live / text

‹ back to catalog

STARLINK-36230

NORAD 67075 · 2025-298A

PAYLOAD ACTIVE UNKNOWN

§ Identity

Operator
Country
US
Launch date
2025-12-14
Launch site
AFWTR
Launch vehicle
Mass (kg)
RCS (m²)

Purposes: comms

External: N2YO · Heavens-Above · Gunter

§ Orbital elements

Epoch: 2026-09-20T16:24:03.728736Z

Period
96.11 min
Inclination
70.0002°
Eccentricity
0.0003631
Mean motion
14.98333836 rev/d
Perigee alt
569.5 km
Apogee alt
574.6 km
Semi-major
6,950.2 km
B*
2.8012e-4
RAAN
242.8829°
Arg perigee
269.8768°
Mean anomaly
90.1975°
Rev number
4,242

§ Raw data

STARLINK-362301 67075U 25298A   26263.68337649  .00003251  00000+0  28012-3 0  99922 67075  70.0002 242.8829 0003631 269.8768  90.1975 14.98333836 42421

JSON: /api/v1/satellites/67075 · /tle

For live sub-satellite position, see the globe view (requires WebGL).

§ Visibility from observer

Set your observer location to see the next 7 days of passes ≥ 10°. The values pass through the URL so the page stays shareable.

No JS? Fill the form by hand. The geolocation button needs JavaScript.